Location: *
(46.9057°S, 179.3842°W)
Time: 22:37:30
(UTC+00:00)

Daily predictions for brighter satellites

Satellite Brightness Start Highest point End
(mag) Time Altitude Azimuth Time Altitude Azimuth Time Altitude Azimuth
Cosmos 2263 Rocket 4.5 15:22:53 19° E 15:22:53 19° E 15:24:52 10° ENE
Cosmos 1980 Rocket 4.1 15:35:06 25° ESE 15:35:06 25° ESE 15:38:04 10° SE
SeaSat 1 3.7 16:09:48 10° ENE 16:14:03 37° ESE 16:14:03 37° ESE
S3M 4.4 16:17:53 30° S 16:21:01 60° ESE 16:27:14 10° NNE
USA 234 3.2 16:19:53 10° SE 16:26:21 77° SSW 16:26:21 77° SSW
Cosmos 1697 Rocket 4.2 16:30:03 25° S 16:30:03 25° S 16:32:30 10° SSE
Cosmos 2266 Rocket 4.3 16:30:15 10° N 16:36:15 64° E 16:42:19 10° SSE
SMAP 4.3 16:37:24 10° NE 16:41:46 40° ESE 16:44:17 22° SSE
Cosmos 1844 Rocket 4.5 16:38:48 17° S 16:42:00 27° SE 16:46:42 10° ENE
Blok-L 4.2 16:42:20 61° ESE 16:42:20 61° ESE 16:49:34 10° NE
Cosmos 1417 Rocket 4.4 16:41:05 61° SSW 16:42:20 82° W 16:48:44 10° N
Exosat Rocket 4.4 16:42:08 34° S 16:43:55 48° ESE 16:49:27 10° NE
Cosmos 2369 3.7 16:58:24 63° SW 16:58:24 63° SW 17:03:48 10° SSE
BREEZE-M DEB (TANK) 3.3 17:00:03 36° ESE 17:00:03 36° ESE 17:01:29 10° ESE
DNEPR-1 R/B 4.2 17:02:35 42° SSE 17:03:04 45° SE 17:07:07 10° ENE
Cosmos 2263 Rocket 2.2 17:04:37 58° WNW 17:04:37 58° WNW 17:09:53 10° N
Cosmos 2278 3.8 17:02:03 10° NNW 17:07:44 78° ENE 17:13:31 10° SSE
Genesis I 3.8 17:11:30 45° NNE 17:11:30 45° NNE 17:14:17 10° NNE
ARGOS 3.1 17:05:26 10° N 17:10:53 70° WNW 17:13:07 37° SSW
Cosmos 883 Rocket 4.3 17:07:33 10° S 17:13:48 80° W 17:19:57 10° N
Cosmos 1980 Rocket 2.5 17:16:55 45° SW 17:16:55 45° SW 17:22:23 10° SSE
Cosmos 1666 4.5 17:17:08 10° S 17:20:30 31° ESE 17:23:49 10° NE
AQUARIUS 4.1 17:23:25 10° NNE 17:27:56 86° ESE 17:31:36 16° SSW
Cosmos 2315 Rocket 3.9 17:24:24 10° SSW 17:30:39 68° W 17:36:50 10° N
CZ-2C R/B 4.4 17:27:23 10° S 17:28:52 17° SSW 17:28:52 17° SSW
ISS -3.6 17:34:51 58° S 17:35:10 61° SSE 17:38:34 10° ENE
BREEZE-M DEB (TANK) 1.6 17:35:26 63° ENE 17:35:26 63° ENE 17:38:08 10° ESE
CZ-2D R/B 4.4 17:32:58 10° NNW 17:35:14 28° NW 17:35:14 28° NW
CZ-4B R/B 3.7 17:32:07 10° N 17:37:07 50° W 17:39:40 27° SW
Radarsat 4.5 17:32:16 10° N 17:37:30 76° WNW 17:42:48 10° SSW
Cosmos 2151 4.3 17:40:30 24° NW 17:40:30 24° NW 17:42:40 10° NNW
Timation 2 Rocket 3.8 17:35:22 23° SW 17:39:20 72° WNW 17:45:35 10° NNE
SL-08 RB Rocket 3.9 17:36:44 10° N 17:41:03 46° W 17:42:35 33° SW
Cosmos 2237 4.4 17:38:49 10° NNW 17:44:32 77° ENE 17:50:20 10° SSE
Cosmos 1242 Rocket 2.3 17:43:59 48° SW 17:44:43 63° W 17:48:04 10° N
Cosmos 1655 Rocket 4.1 17:38:48 10° NNW 17:44:51 50° WSW 17:51:01 10° S
Cosmos 1602 3.7 17:44:57 11° S 17:48:40 78° E 17:52:26 10° NNE
Meteor 1-31 Rocket 4.0 17:47:30 10° NNW 17:49:42 24° NW 17:49:42 24° NW
SeaSat 1 3.0 17:47:12 10° N 17:51:48 38° WNW 17:53:48 27° WSW
Cosmos 1818 3.8 17:49:20 24° WNW 17:52:19 46° SW 17:57:33 10° SSE
CORIOLIS 4.3 17:47:35 10° N 17:52:51 54° W 17:58:12 10° SSW
Meteor PRIRODA 3.6 17:49:31 10° NNE 17:53:09 83° ESE 17:56:47 10° SSW
Cosmos 1461 3.0 17:51:09 23° SSW 17:53:24 64° SE 17:57:21 10° NE
NOAA 6 4.0 17:50:24 10° NNE 17:55:35 88° E 18:00:51 10° SSW
Cosmos 44 3.2 17:54:38 29° WSW 17:56:32 51° WNW 18:00:40 10° NNE
Helios 1A 4.1 17:54:47 10° S 17:57:32 25° SW 17:57:32 25° SW
Meteor 1-20 Rocket 4.3 17:56:25 10° S 18:02:09 89° E 18:07:55 10° N
Cosmos 1500 3.2 18:01:15 15° SSW 18:04:07 52° W 18:07:43 10° N
Atlas Centaur 2 4.4 18:07:34 10° N 18:07:47 10° N 18:08:01 10° N
Meteor 1-25 Rocket 4.3 18:02:28 10° S 18:08:13 87° E 18:13:49 10° N
SL-16 R/B 2.2 18:02:35 10° NW 18:08:14 65° WSW 18:13:58 10° SSE
USA 234 3.8 18:02:55 10° SE 18:09:02 42° SSW 18:13:41 17° WSW
Cosmos 2322 Rocket 2.2 18:05:58 10° NNW 18:11:36 86° WSW 18:17:20 10° SSE
CZ-4B R/B 3.0 18:07:29 10° NNE 18:11:45 89° W 18:16:15 10° SSW
Cosmos 1697 Rocket 4.4 18:11:49 13° SW 18:12:13 14° SW 18:15:00 10° S
Cosmos 1844 3.8 18:07:58 10° SSW 18:13:53 86° WNW 18:19:41 10° NNE
Okean O Rocket 4.0 18:10:41 10° ENE 18:13:58 21° ESE 18:17:16 10° SSE
Cosmos 2360 Rocket 2.4 18:13:06 10° NNW 18:18:46 79° ENE 18:24:31 10° SSE
SMAP 4.1 18:15:18 10° NNW 18:19:14 26° W 18:22:45 12° SW
DELTA 2 DEB (DPAF) 4.2 18:15:18 10° SSE 18:19:46 83° ENE 18:24:09 10° NNW
Cosmos 2221 2.9 18:18:18 10° N 18:22:39 69° E 18:27:01 10° SSE
Cosmos 1844 Rocket 2.7 18:20:46 10° SSW 18:26:19 61° WNW 18:31:48 10° N
Cosmos 2333 Rocket 2.6 18:25:08 10° NNW 18:30:45 70° ENE 18:36:28 10° SSE
COSMO-SKYMED 1 2.6 18:28:19 10° S 18:32:43 64° WSW 18:37:03 10° NNW
Cosmos 1269 Rocket 4.2 18:28:02 10° NW 18:33:13 50° WSW 18:38:29 10° SSE
SL-4 R/B 2.7 18:29:20 10° NW 18:33:46 64° NNE 18:38:25 10° ESE
Cosmos-2242 4.0 18:30:11 10° NW 18:33:52 26° WSW 18:37:39 10° SSW
Cosmos 1933 3.3 18:31:03 10° NNW 18:35:07 81° W 18:39:18 10° S
Cosmos 1812 Rocket 4.5 18:32:04 10° NW 18:35:46 26° WSW 18:39:31 10° SSW
Cosmos 2219 Rocket 2.9 18:37:23 10° N 18:42:53 59° ENE 18:48:26 10° SSE
ADEOS 4.2 18:38:59 10° NNW 18:43:50 37° W 18:48:45 10° SSW
USA 81 4.1 18:38:48 10° S 18:44:08 69° W 18:49:24 10° N
Cosmos 1812 3.0 18:41:14 10° NNW 18:44:50 43° WSW 18:48:31 10° S
Landsat 4 4.1 18:43:32 10° N 18:47:03 41° W 18:50:36 10° SSW
Cosmos 1544 4.5 18:47:46 10° SW 18:50:07 18° W 18:52:28 10° NW
CZ-4B R/B 3.7 18:45:13 10° NNE 18:50:51 68° ESE 18:56:29 10° S
CZ-4 R/B 2.0 18:49:20 10° NNE 18:53:17 61° ESE 18:57:22 10° S
Cosmos 1666 4.0 18:52:37 10° SW 18:55:21 20° W 18:58:04 10° NW
SKYMED 3 4.5 18:51:14 10° S 18:55:27 63° WSW 18:59:35 10° NNW
Cosmos 1500 Rocket 4.4 18:53:56 10° S 18:58:17 53° ESE 19:02:37 10° NNE
Cosmos 1745 Rocket 4.0 18:52:13 10° NNW 18:58:20 65° WSW 19:04:32 10° S
NOSS 3-3 (A) 4.0 18:52:07 10° SW 18:58:44 79° SE 19:04:21 10° NE
NOSS 3-3 (C) 4.0 18:52:12 10° SW 18:58:50 78° SE 19:04:27 10° NE
PSLV R/B 3.8 18:56:00 10° NNE 18:59:53 87° WNW 19:03:45 10° SSW
Cosmos 1709 Rocket 4.1 18:55:23 10° N 19:01:33 90° E 19:07:50 10° S
